www.pogodaiklimat.ru
ПОГОДА в Андоне
Время
(UTC), дата
21 8.11
00 9.11
03 9.11
06 9.11
09 9.11
12 9.11
15 9.11
18 9.11
21 9.11
00 10.11
03 10.11
06 10.11
09 10.11
12 10.11
15 10.11
18 10.11
21 10.11
00 11.11
03 11.11
09 11.11
12 11.11
15 11.11
18 11.11
21 11.11
00 12.11
03 12.11
06 12.11
09 12.11
12 12.11
15 12.11
18 12.11
21 12.11
00 13.11
03 13.11
06 13.11
09 13.11
12 13.11
15 13.11
18 13.11
21 13.11
00 14.11
03 14.11
06 14.11
09 14.11
12 14.11
15 14.11
18 14.11
21 14.11
00 15.11
03 15.11
06 15.11
09 15.11
12 15.11
15 15.11
18 15.11
Ветер
(напр.,м/с)
Видим. Явления Облачность Т
(С)
Тd
(С)
f
(%)
Тe
(С)
Тes
(С)
Комфортность P
(гПа)
Po
(гПа)
Тmin
(С)
Tmax
(С)
R
(мм)
R24
(мм)
S
(см)
штиль 0 6000 м дымка ясно -0.4 -1.8 90 -2 -2 по сезону 1023.6 1005.7
Ю 1 4700 м дымка ясно +2.0 +0.2 88 0 +2 по сезону 1024.3 1006.6 -1.4
З 1 15 км ясно +11.4 -2.8 37 +12 +20 тепло 1021.9 1004.9
З 2 19 км ясно +16.1 -2.9 27 +16 +20 тепло 1019.4 1002.7
ЮВ 1 19 км ясно +12.1 -0.7 41 +13 +13 тепло 1019.9 1002.9
В 1 20 км ясно +6.8 +1.0 66 +6 +6 тепло 1021.5 1004.2 +16.4
ЮВ 1 15 км ясно +4.4 +0.5 76 +3 +3 по сезону 1021.2 1003.7
штиль 0 11 км ясно +1.1 -0.6 88 -0 -0 по сезону 1020.6 1002.9
Ю 1 9000 м дымка 8/5 600 м
[Sc Ci fib]
+1.6 -0.1 88 -0 -0 по сезону 1019.5 1001.8
штиль 0 12 км 9/6 1000 м
[Sc Ci sp]
+3.2 +0.7 84 +2 +3 по сезону 1019.4 1001.9 +0.6
З 1 14 км 10/8 1000 м
[Sc As op]
+8.7 +1.5 61 +8 +9 тепло 1016.7 999.6
Ю 1 16 км 8/0
[Ac trans Ci sp]
+12.6 +1.8 48 +13 +16 тепло 1011.9 995.1
штиль 0 14 км 8/0
[Ac trans]
+9.1 +3.7 69 +9 +9 тепло 1010.4 993.4
З 2 8000 м дымка 8/0
[Ac trans]
+6.3 +3.6 83 +4 +4 по сезону 1008.1 990.9 +13.1
СЗ 1 1300 м в посл. час дождь 10/9 1000 м
[Sc As op]
+6.6 +5.6 93 +5 +5 тепло 1007.7 990.6
С 1 7000 м дымка 8/8 1000 м
[Sc]
+7.3 +6.0 91 +6 +6 тепло 1006.7 989.7
штиль 0 14 км слаб. дождь 10/9 600 м
[Sc As op]
+7.9 +6.3 90 +7 +7 тепло 1007.4 990.4
З 6 13 км 9/9 600 м
[Sc]
+10.3 +7.8 84 +7 +7 тепло 1008.8 991.9 +6.5 8
З 3 19 км 9// 600 м
[Sc]
+12.5 +8.3 76 +11 +14 тепло 1009.2 992.5
20 км н/о +12.3 +5.4 63 +12 +12 тепло 1013.2 996.4
СЗ 3 20 км 3/3 1000 м
[Sc]
+9.6 +4.9 72 +7 +7 тепло 1016.0 999.0 +15.6 0.0
штиль 0 11 км ясно +6.7 +4.5 86 +6 +6 тепло 1018.0 1000.7
З 1 2800 м дымка ясно +4.1 +3.2 94 +3 +3 по сезону 1019.9 1002.4
ЮВ 1 3700 м дымка ясно +4.0 +3.2 95 +2 +2 по сезону 1021.5 1004.0
штиль 0 200 м туман ?/? +4.2 +3.7 97 +3 +3 по сезону 1023.0 1005.5 +2.5 0.0
ЮВ 1 9000 м мгла 6/0
[Ci fib]
+11.6 +5.8 68 +12 +19 тепло 1021.8 1004.8
СЗ 2 16 км 6/0
[Ci fib]
+14.8 +5.2 53 +15 +18 тепло 1020.6 1003.8
штиль 0 18 км ясно +10.2 +4.5 68 +10 +10 тепло 1021.6 1004.5
штиль 0 7000 м дымка ясно +6.5 +5.1 91 +5 +5 тепло 1022.6 1005.2 +15.1
штиль 0 3100 м дымка 6/0
[Ci fib]
+3.5 +2.4 92 +2 +2 по сезону 1023.0 1005.4
С 1 200 м туман ?/? +4.2 +3.7 97 +3 +3 по сезону 1023.1 1005.6
СЗ 1 200 м туман 10// 200 м
[]
+3.7 +3.2 97 +2 +2 по сезону 1021.3 1003.8
ЮВ 2 900 м туман ?/? +4.9 +4.6 98 +2 +2 по сезону 1021.0 1003.5 +3.2
СЗ 2 5000 м дымка 9/0
[Ac trans]
+6.0 +5.5 97 +3 +9 по сезону 1017.8 1000.5
СЗ 1 9000 м дымка 8/0
[Ac trans]
+8.9 +4.8 75 +8 +10 тепло 1014.0 997.0
ЮЗ 1 17 км 9/9 1500 м
[Sc Ac trans]
+10.8 +3.3 60 +11 +11 тепло 1013.1 996.1
штиль 0 7000 м в посл. час дождь 10/6 1000 м
[Sc As op]
+8.8 +7.4 91 +8 +8 тепло 1015.0 997.9 +11.8 0.8
З 3 20 км 9/3 1000 м
[Sc Ac trans]
+7.9 -2.7 47 +6 +6 тепло 1019.1 1001.9
СЗ 4 20 км ясно +4.8 -7.3 41 +1 +1 по сезону 1021.0 1003.5
З 3 20 км ясно +1.6 -12.9 33 -2 -2 по сезону 1023.2 1005.5
З 5 20 км ясно +1.5 -16.4 25 -3 -2 прохладно 1025.7 1007.9 +0.4 0.0
СЗ 5 19 км ясно +4.5 -15.4 22 +1 +4 по сезону 1024.8 1007.3
З 4 20 км ясно +6.1 -14.6 21 +3 +6 по сезону 1023.4 1006.0
С 1 20 км ясно +2.9 -12.2 32 +2 +2 по сезону 1024.5 1006.9
штиль 0 20 км ясно -0.7 -8.1 57 -1 -1 по сезону 1024.5 1006.6
штиль 0 20 км ясно -2.2 -6.7 71 -3 -3 прохладно 1024.4 1006.4
штиль 0 20 км ясно -3.5 -6.6 79 -4 -4 прохладно 1024.8 1006.7
штиль 0 20 км ясно -4.6 -6.8 85 -6 -6 холодно 1023.5 1005.3
ЮВ 1 20 км ясно -0.9 -7.2 62 -3 -1 прохладно 1023.2 1005.3 -5.1
19 км н/о +7.2 -6.2 38 +7 +8 тепло 1021.1 1003.8
С 2 20 км 6/6 1500 м
[Sc]
+12.0 -1.9 38 +12 +14 тепло 1017.9 1001.0
20 км н/о +7.3 -0.1 59 +7 +7 тепло 1018.4 1001.2
16 км 8/8 1000 м
[Sc]
+5.6 +0.3 69 1019.6 1002.2 +12.5
штиль 0 5000 м слаб. дождь 10/10 600 м
[Frnb Ns]
+5.3 +3.7 89 +4 +4 по сезону 1020.1 1002.7
штиль 0 2800 м в посл. час дождь 10/10 600 м
[Sc As op]
+5.6 +4.7 94 +4 +4 по сезону 1020.0 1002.6 0.8
Местоположение метеостанции Андон (Корея): широта 36.57 долгота 128.71 высота над уровнем моря 141 м.
В архиве по умолчанию представлена погода в Андоне за последнюю неделю. Архивные данные за месяц целиком и за предыдущие месяцы, начиная с января 2011 года, Вы можете получить, выбрав интересующий диапазон дат из раскрывающегося списка и нажав кнопку "Найти!".
*Определитесь, кто Вы:
Внимание! Время в таблицах - всемирное. Для получения местного времени необходимо прибавить поправку, которая равна 9 ч.
Смотрите также архив погоды в соседних городах и на ближайших метеорологических станциях:
Партнеры нашего сайта:      
Пояснения к столбцам:
  • Ветер - указаны скорость ветра в м/с - средняя за 10 мин, порывы в срок и между сроками (в фигурных скобках) и направление, откуда дует ветер: С - северный,
  • СВ - северо-восточный, В - восточный, ЮВ - юго-восточный, Ю - южный, ЮЗ - юго-западный, З - западный, СЗ - северо-западный.
  • Видимость - горизонтальная дальность видимости в метрах или километрах. При видимости от 1 до 10 км при отсутствии осадков обычно наблюдается дымка, при ухудшении видимости до 1 км и менее - туман. В сухую погоду видимость может ухудшаться дымом, пылью или мглою.
  • Явления - указаны атмосферные явления, наблюдавшиеся в срок или в последний час перед сроком; фигурными скобками обозначены явления, наблюдавшиеся между сроками (за 1-3 часа до срока); квадратными скобками обозначены град или гололедные отложения с указанием их диаметра в мм.
  • Облачность - указаны через наклонную черту общая и нижняя облачность в баллах и высота нижней границы облаков в метрах; квадратными скобками обозначены формы облаков: Ci - перистые, Cs - перисто-слоистые, Cc - перисто-кучевые, Ac - высококучевые, As - высокослоистые, Sc - слоисто-кучевые, Ns - слоисто-дождевые, Cu - кучевые, Cb - кучево-дождевые. Подробнее классификацию облаков см. в Атласе облаков (PDF).
  • T - Температура воздуха - температура, измеренная на высоте 2 м над землей.
  • Td - Температура точки росы - температура, при понижении до которой содержащийся в воздухе водяной пар достигнет насыщения.
  • f - Относительная влажность воздуха - влажноcть воздуха, измеренная на высоте 2 м над землей.
  • Te - Эффективная температура - температура, которую ощущает одетый по сезону человек в тени. Характеристика душности погоды. При расчете учитывается влияние влажности воздуха и скорости ветра на теплоощущения человека.
  • Tes - Эффективная температура на солнце - температура, которую ощущает человек, с поправкой на солнечный нагрев. Характеристика знойности погоды. Зависит от высоты солнца над горизонтом, облачности и скорости ветра. Ночью, в пасмурную погоду, а также при ветре 12 м/с и более поправка равна нулю.
  • P - Атмосферное давление - приведенное к уровню моря атмосферное давление.
  • Po - Атмосферное давление - измеренное на уровне метеостанции атмосферное давление.
  • Tmin - Минимальная температура - минимум температуры воздуха на высоте 2 м над землей.
  • Tmax - Максимальная температура - максимум температуры воздуха на высоте 2 м над землей.
  • R - Количество осадков - Количество выпавших осадков за период времени, мм. При наведении курсора мыши на число - период времени, за который выпало указанное количество осадков.
  • R24 - Количество осадков - Количество выпавших осадков за 24 часа, мм.
  • S - Снежный покров - Высота снежного покрова, см. При наведении курсора мыши на число - состояние снежного покрова и степень покрытия местности в баллах.